Location: Cheching
(60.0667°N, 164.2167°W)
Time: 21:52:07
(UTC+00:00)

XW-2D - Pass Details

Date: 17 January 2021
Orbit: 505 x 525 km, 97.5° (Epoch: 07 March)

Event Time Altitude Azimuth Distance (km) Brightness Sun altitude
Rises 05:14:49 0° 215° (SW) 2,618 ? -18.8°
Reaches altitude 10° 05:17:44 10° 240° (WSW) 1,743 ? -19.2°
Maximum altitude 05:19:50 14° 275° (W) 1,496 ? -19.4°
Drops below altitude 10° 05:21:56 10° 309° (NW) 1,757 ? -19.7°
Sets 05:24:55 0° 334° (NNW) 2,656 ? -20.0°
